STARLINK AG

Last updated on June 19, 2020, 12:02 a.m. UTC

1 45760U 20038AG  20170.66667824  .00095247  11274-4  11912-3 0  9993
2 45760  52.9998 272.2376 0111362  69.3633  28.0215 15.96132562  1930

Satellite is not in orbit.